Preview of NWS' New Version of Forecast
This preview is not operational and should not be used for support decisions.
Latest weather observations around

Albuquerque, Albuquerque International Airport (KABQ)

Using English Units (Switch to International System of Units)
Date/ Time (MDT) Wind (mph) Vis. (mi) Weather Sky Cond. Temp (°F) Rel. Humidity Wind Chill (°F) Heat Index (°F) Pressure Precip. (in)
Air Dwpt 6 hour Altimeter (inHg) Sea level (inHg) 1 hr 3 hr 6 hr
Max Min
Jun 21 10:52 WNW 5 10 Mostly Clear FEW070 82 51     34%   81 30.2 29.9      
Jun 21 09:52 NNE 9 10 Mostly Clear FEW030 79 52     39%   78 30.2 29.91      
Jun 21 08:52   10 Mostly Clear FEW025 76 57     52%   76 30.21 29.92      
Jun 21 07:52   10 Mostly Clear FEW020 73 57     57%   73 30.19 29.9      
Jun 21 06:52 Calm 10 Mostly Clear FEW020 71 50     47%   70 30.17 29.88      
Jun 21 05:52 W 8 10 Clear CLR 69 38     32%     30.15 29.87      
Jun 21 04:52 Calm 10 Clear CLR 71 41     34%   69 30.12 29.84      
Jun 21 03:52 WNW 3 10 Clear CLR 72 44     37%   71 30.12 29.83      
Jun 21 02:52 ESE 11 10 Clear CLR 73        %     30.11 29.82      
Jun 21 01:52 Calm 10 Clear CLR 71 32     24%   69 30.1 29.83      
Jun 21 00:52 W 7 10 Clear CLR 77 30     18%   75 30.1 29.81      
Jun 20 23:52 NNW 10 10 Clear CLR 81 28     14%   79 30.1 29.8      
Jun 20 22:52 NNW 8 10 Clear CLR 83 28     14%   80 30.09 29.79      
Jun 20 21:52 N 7 10 Clear CLR 86 26     11%   82 30.07 29.78      
Jun 20 20:52 NNW 10 10 Clear CLR 88 27     11%   84 30.04 29.75      
Jun 20 19:52 NNW 13 10 Clear CLR 92 27     10%   87 30.03 29.73      
Jun 20 18:52 WNW 7 10 Clear CLR 93 24     8%   87 30.02 29.72      
Jun 20 17:52 6 10 Clear CLR 93 27     9%   88 30.02 29.75      
Jun 20 16:52 SSW 8 10 Clear CLR 91 27     10%   86 30.04 29.76      
Jun 20 15:52 WNW 8 10 Clear CLR 90 28     11%   85 30.06 29.78      
Jun 20 14:52 SW 13 10 Clear CLR 90 30     12%   86 30.08 29.79      
Jun 20 13:52 S 5 10 Clear CLR 87 29     12%   83 30.11 29.82      
Jun 20 12:52 6 10 Clear CLR 87 31     13%   83 30.12 29.83      
Jun 20 11:52 Calm 10 Clear CLR 83 34     17%   80 30.14 29.85      
Jun 20 10:52 Calm 10 Clear CLR 81 38     21%   80 30.15 29.86      
Jun 20 09:52 N 5 10 Clear CLR 77 34     21%   75 30.15 29.87      
Jun 20 08:52 NNW 5 10 Clear CLR 73 24     16%   71 30.16 29.88      
Jun 20 07:52 NNE 7 10 Clear CLR 72        %     30.13 29.85      
Jun 20 06:52 ENE 10 10 Clear CLR 70 37     30%     30.11 29.83      
Jun 20 05:52 ESE 8 10 Clear CLR 63 31     30%     30.09 29.82      
Jun 20 04:52 E 3 10 Clear CLR 66 27     23%     30.06 29.79      
Jun 20 03:52 NE 3 10 Clear CLR 67 28     23%     30.04 29.76      
Jun 20 02:52 NNW 7 10 Clear CLR 73 24     16%   71 30.03 29.74      
Jun 20 01:52 N 9 10 Clear CLR 75 24     15%   73 30.03 29.74      
Jun 20 00:52 N 8 10 Clear CLR 76 23     14%   74 30.02 29.73      
Jun 19 23:52 NNW 8 10 Clear   79 20     11%   77 30.02 29.73      
Jun 19 22:52 N 9 10 Clear CLR 80 16     9%   78 30.03 29.74      
Jun 19 21:52 WNW 10 10 Clear CLR 82 16     8%   79 30 29.71      
Jun 19 20:52 WSW 7 10 Clear CLR 86 20     9%   82 29.98 29.68      
Jun 19 19:52 WSW 11 10 Clear CLR 90 19     7%   85 29.97 29.67      
Jun 19 18:52 W 18 10 Clear CLR 92 22     8%   86 29.96 29.67      
Jun 19 17:52 W 9 10 Clear CLR 92 32     12%   87 29.97 29.68      
Jun 19 16:52 3 10 Clear CLR 90 30     12%   86 29.99 29.71      
Jun 19 15:52 W 9 10 Clear CLR 91 30     11%   86 30.01 29.72      
Jun 19 14:52 W 8 10 Clear CLR 90 32     13%   86 30.04 29.75      
Jun 19 13:52 3 10 Clear CLR 86 33     15%   83 30.07 29.79      
Jun 19 12:52 NNW 9 10 Clear CLR 85 35     17%   82 30.09 29.81      
Jun 19 11:52 5 10 Clear CLR 84 36     18%   81 30.11 29.83      
Jun 19 10:52 Calm 10 Clear CLR 81 34     18%   80 30.12 29.85      
Jun 19 09:52 NNW 8 10 Clear CLR 80 33     18%   79 30.13 29.84      
Jun 19 08:52 NNE 7 10 Clear CLR 77 34     21%   75 30.13 29.84      
Jun 19 07:52 ESE 6 10 Clear CLR 71 39     31%   69 30.12 29.84      
Jun 19 06:52 Calm 10 Clear CLR 69 41     36%     30.11 29.84      
Jun 19 05:52 SW 6 10 Clear CLR 70 36     29%     30.09 29.82      
Jun 19 04:52 Calm 10 Clear CLR 68 42     39%     30.08 29.81      
Jun 19 03:52 S 9 10 Clear   71 43     36%   70 30.06 29.79      
Jun 19 02:52 S 9 10 Clear CLR 74 42     32%   73 30.04 29.76      
Jun 19 01:52 SE 6 10 Clear CLR 71 45     39%   70 30.04 29.77      
Jun 19 00:52 SE 6 10 Clear CLR 72 46     40%   71 30.04 29.78      
Jun 18 23:52 S 9 10 Clear CLR 77 45     32%   76 30.05 29.78      
Jun 18 22:52 SSE 8 10 Clear CLR 76 46     35%   75 30.06 29.8      
Jun 18 21:52 SSE 10 10 Clear CLR 79 46     31%   78 30.06 29.8      
Jun 18 20:52 E 6 10 Mostly Clear FEW110 84 41     22%   81 30.04 29.77      
Jun 18 19:52 E 6 10 Mostly Clear FEW090 86 41     21%   83 30.03 29.76      
Jun 18 18:52 S 7 10 Mostly Clear FEW090 86 41     21%   83 30.03 29.77      
Jun 18 17:52 W 6 10 Mostly Clear FEW090 86 42     21%   83 30.04 29.78      
Jun 18 16:52 Calm 10 Mostly Clear FEW090 85 41     21%   82 30.06 29.8      
Jun 18 15:52 6 10 Mostly Clear FEW090 84 41     22%   81 30.08 29.83      
Jun 18 14:52 5 10 Mostly Clear FEW090 84 42     23%   81 30.1 29.83      
Jun 18 13:52 S 9 10 Mostly Clear FEW080 82 43     25%   80 30.12 29.86      
Jun 18 12:52 W 8 10 Mostly Clear FEW080 80 42     26%   79 30.14 29.89      
Jun 18 11:52 3 10 Mostly Clear FEW080 78 43     29%   77 30.15 29.91      
May 15 11:52 SSE 7 10 Partly Cloudy SCT110 78 24     13%   76 30.13 29.88      
May 14 18:52 W 6 10 Mostly Cloudy FEW110 BKN150 80 27     14%   78 29.95 29.73      
May 14 17:52 W 8 10 Mostly Cloudy SCT110 BKN150 80 28     15%   78 29.96 29.73      
May 14 11:52 WSW 10 10 Mostly Clear FEW100 73 26     17%   71 30.1 29.87      
May 13 17:52   10 Partly Cloudy FEW130 SCT250 84 18     9%   80 29.92 29.69      
May 13 05:52 SE 7 10 Clear CLR 56 26     31%     30.06 29.83      
May 12 16:52 SW 18 10 Mostly Clear FEW120 FEW250 86 20     9%   82 29.89 29.65      
May 12 00:52 SE 7 10 Mostly Clear FEW250 66 22     19%     29.93 29.67      
May 11 20:52 W 10 10 Mostly Cloudy FEW130 BKN250 80 20     11%   78 29.85 29.57      
May 11 19:52 W 15 10 Mostly Cloudy FEW130 BKN250 82 20     10%   79 29.81 29.54      
May 11 14:52   10 Mostly Cloudy FEW140 SCT190 BKN280 88 23     9%   84 29.81 29.51      
Jun 11 21:52 SSE 9 10 Clear   76 5     6%   74 29.94 29.67      
Jun 11 13:52 3 10 Clear CLR 86 9     5%   82 29.97 29.68      
Jun 11 10:52 Calm 10 Mostly Clear FEW220 79 15     9%   77 30.01 29.75      
Jun 10 06:52 ESE 5 10 Clear CLR 65 31     28%     30.01 29.72      
Jun 09 01:52   10 Clear   71 48     44%   70 30.04 29.76      
Jun 08 22:42   10 Mostly Cloudy FEW150 BKN250 76        %     30.04        
Jun 08 20:52 NNW 10 10 Mostly Cloudy FEW160 BKN250 86 19     8%   82 29.98 29.71      
Jun 08 19:52 NW 14 10 Mostly Cloudy SCT160 BKN250 90 14     6%   85 29.97 29.68      
Jun 08 00:52 SE 8 10 Mostly Cloudy FEW140 BKN250 70 47     44%     30.19 29.93      
Jun 07 07:52 E 10 10 Partly Cloudy SCT250 69 48     47%     30.24 29.99      
Jun 05 19:52 ENE 9 10 Mostly Cloudy BKN130 BKN250 89        %     30 29.72